This is the latest recevied weather packets stored in our database for station/object HK3BJ-17. If no packets are shown the sender has not sent any weather packets the latest 10 day(s).
| Time | Temp. | Humidity | Pressure | Rain* | Wind** | Luminosity | Snow |
|---|---|---|---|---|---|---|---|
| 1787680872 | 13.33° C | 60% | 1016 hPa | 0 mm | - | - | - |
| 1787679923 | 13.33° C | 60% | 1016 hPa | 0 mm | - | - | - |
| 1787678979 | 13.89° C | 60% | 1017 hPa | 0 mm | - | - | - |
| 1787678036 | 13.89° C | 60% | 1017 hPa | 0 mm | - | - | - |
| 1787677093 | 13.89° C | 59% | 1017 hPa | 0 mm | - | - | - |
| 1787676149 | 13.89° C | 59% | 1017 hPa | 0 mm | - | - | - |
| 1787675204 | 13.89° C | 59% | 1017 hPa | 0 mm | - | - | - |
| 1787674259 | 13.89° C | 59% | 1017 hPa | 0 mm | - | - | - |
| 1787673315 | 13.89° C | 58% | 1017 hPa | 0 mm | - | - | - |
| 1787672377 | 13.89° C | 60% | 1017 hPa | 0 mm | - | - | - |
| 1787671429 | 13.89° C | 62% | 1018 hPa | 0 mm | - | - | - |
| 1787670486 | 13.89° C | 64% | 1018 hPa | 0 mm | - | - | - |
| 1787669545 | 13.89° C | 66% | 1018 hPa | 0 mm | - | - | - |
| 1787668604 | 13.89° C | 69% | 1018 hPa | 0 mm | - | - | - |
| 1787667663 | 13.89° C | 71% | 1019 hPa | 0 mm | - | - | - |
| 1787666722 | 13.89° C | 74% | 1019 hPa | 0 mm | - | - | - |
| 1787665782 | 10° C | 71% | 1019 hPa | 0 mm | - | - | - |
| 1787664837 | 8.89° C | 78% | 1019 hPa | 0 mm | - | - | - |
| 1787663891 | 9.44° C | 79% | 1020 hPa | 0 mm | - | - | - |
| 1787662946 | 9.44° C | 81% | 1020 hPa | 0 mm | - | - | - |
| 1787661995 | 9.44° C | 81% | 1020 hPa | 0 mm | - | - | - |
| 1787661052 | 8.89° C | 76% | 1020 hPa | 0 mm | - | - | - |
| 1787660109 | 5.56° C | 88% | 1021 hPa | 0 mm | - | - | - |
| 1787659162 | 5.56° C | 91% | 1021 hPa | 0 mm | - | - | - |
| 1787658215 | 5.56° C | 91% | 1021 hPa | 0 mm | - | - | - |
* Rain latest hour (hover to see other rain measurements)
** Current wind speed in m/s (hover to see current wind gust speed)